Wetbulb
64.21 66.88 68.57 69.39 70.14 72.23 79.31 79.00 78.17 79.53 79.08 75.88 74.29 74.25 73.55 74.25 74.76 75.05 76.99 77.64 75.94 75.92 75.88 74.71 75.24 76.27 74.67 73.68 74.61 73.69 72.93 72.48 72.35 70.60 69.59 71.40 68.21 67.73 66.55 71.82 70.65 69.40 70.30
63.66 65.55 67.91 69.42 70.14 70.85 73.34 75.41 78.64 79.45 78.71 77.38 77.62 76.66 75.13 75.30 75.17 75.23 75.27 76.52 76.48 76.37 75.92 75.20 74.83 74.58 73.78 74.60 74.91 73.72 72.12 71.95 72.05 68.63 67.61 64.73 66.96 69.39 68.81 70.20 67.65 67.26 69.14
62.98 64.42 65.75 68.47 69.74 70.31 71.18 72.15 73.35 74.03 76.73 78.48 78.38 78.33 77.93 78.15 76.44 74.92 74.93 75.97 76.26 76.33 76.79 76.05 74.89 75.43 74.38 73.17 73.58 73.58 72.69 69.13 70.06 71.15 66.70 63.60 62.50 65.83 69.09 68.52 67.25 69.12 68.14
63.31 63.86 64.90 66.12 68.05 69.09 71.11 72.51 72.77 72.75 72.36 75.45 76.59 76.82 75.40 73.15 74.17 74.95 74.42 75.10 75.68 76.01 75.78 76.10 75.26 74.92 74.88 73.20 73.86 73.79 72.67 71.74 69.22 68.83 69.19 70.52 68.09 63.42 61.94 66.63 68.54 69.31 68.30
62.22 62.27 62.75 64.49 65.13 66.92 68.15 70.75 71.90 73.29 74.59 73.99 74.11 72.13 75.55 73.88 76.14 75.39 74.76 76.06 75.92 75.59 75.42 75.55 75.51 75.30 75.31 73.73 72.84 72.42 72.65 72.55 69.56 69.08 67.39 66.43 68.57 66.96 61.68 58.45 65.03 67.74 68.25
61.02 61.96 63.18 63.79 64.37 64.46 65.89 67.53 68.70 69.91 71.56 72.45 73.27 74.84 73.40 74.44 73.79 74.28 74.05 73.91 75.92 75.50 75.33 75.39 75.27 75.57 74.70 73.05 74.44 73.24 72.64 71.37 71.66 71.03 67.40 66.21 63.47 63.52 62.44 59.96 61.93 64.15 66.19
59.79 60.35 60.81 61.58 63.28 63.52 64.15 65.16 66.74 66.44 68.22 68.76 70.13 71.39 72.15 73.21 73.75 73.81 72.10 73.19 73.44 74.19 74.55 74.63 74.63 74.44 74.53 74.21 73.28 72.62 72.71 71.99 70.80 70.87 69.25 68.87 67.08 66.21 65.06 62.99 61.11 61.35 64.14
59.42 59.52 60.09 61.00 61.35 62.71 63.84 63.87 65.34 65.34 66.19 66.75 67.69 68.44 69.66 70.05 70.78 71.20 71.46 71.84 72.52 73.06 65.10 68.12 68.27 68.52 73.14 73.68 72.91 73.18 72.22 72.37 72.19 71.44 70.44 69.22 68.47 66.57 64.64 63.83 62.78 59.58 61.29
57.71 58.25 58.68 59.10 60.39 61.87 63.27 63.42 64.55 65.29 65.80 66.22 66.71 66.77 67.70 68.08 67.74 68.99 71.01 70.69 71.48 72.38 68.43 64.76 64.29 64.64 65.53 71.95 71.75 71.91 72.15 71.83 71.82 70.85 72.15 69.58 68.54 66.97 65.82 65.54 64.12 62.34 57.69
56.51 56.88 57.38 58.25 58.78 59.84 60.88 61.43 61.73 62.52 63.85 64.21 64.71 65.64 66.89 66.76 67.32 67.33 66.97 67.70 68.40 69.55 69.00 68.70 64.21 62.47 63.07 70.03 71.14 71.41 72.62 71.95 70.34 69.24 70.18 69.22 67.94 68.46 66.64 66.42 65.72 64.18 61.82
55.09 56.02 56.96 57.71 57.64 57.99 57.73 59.59 60.05 60.54 61.16 61.48 62.40 63.44 63.95 65.16 65.97 65.96 65.98 65.98 66.77 67.90 67.86 67.66 68.20 64.09 61.13 68.55 69.64 70.49 71.36 70.57 70.23 68.84 69.42 68.46 68.31 68.17 66.02 66.55 66.15 65.11 63.99
54.42 55.11 55.96 56.25 56.59 56.73 57.10 57.41 59.31 58.52 59.21 60.57 61.40 62.07 62.75 62.92 63.90 63.91 64.40 64.91 64.69 65.84 66.70 66.71 66.74 67.19 68.87 68.81 68.30 69.47 70.21 70.08 68.63 69.12 67.84 68.20 67.94 68.21 67.73 66.24 65.70 65.35 66.42
54.32 54.31 54.28 54.68 55.42 55.82 56.46 56.35 56.99 57.40 58.19 59.10 58.72 60.58 61.72 61.96 61.89 61.74 63.44 63.63 63.20 63.45 64.35 65.55 65.16 64.77 66.39 66.39 65.26 68.55 68.16 67.83 68.89 69.06 66.92 67.91 67.45 66.36 66.57 67.49 67.39 65.29 66.27
54.53 53.43 53.69 54.12 55.59 56.25 55.40 55.27 55.45 56.48 56.91 57.03 57.59 58.63 60.13 60.32 60.80 61.62 62.02 61.84 62.07 61.58 62.05 63.21 63.83 64.82 64.68 65.70 65.46 66.03 62.82 65.81 67.50 68.85 68.72 67.48 67.33 66.71 62.80 61.20 59.89 59.77 60.52
51.31 52.02 52.33 52.83 54.21 55.12 55.63 55.29 56.08 56.34 56.96 56.46 56.62 57.55 58.69 59.22 58.71 59.53 60.83 60.90 61.23 60.60 61.18 60.97 61.70 62.74 64.13 63.84 61.96 62.98 64.29 63.45 62.15 66.51 67.40 66.12 65.61 63.21 62.35 62.26 60.47 59.95 58.52
51.01 51.62 52.05 52.43 53.20 53.96 54.77 55.08 55.37 55.95 56.70 56.11 55.98 56.64 57.13 57.14 57.59 58.13 58.02 59.09 59.87 60.31 59.83 59.69 59.92 60.59 61.38 54.48 54.98 58.11 62.02 63.50 63.23 60.46 62.37 63.38 60.80 59.55 58.22 58.06 58.54 59.94 59.07
51.18 51.34 52.25 53.19 53.85 53.87 55.28 55.19 54.92 55.74 55.46 55.31 55.55 55.43 55.91 56.18 56.92 56.85 56.82 56.95 57.98 58.81 58.68 59.09 58.60 58.65 60.57 52.22 50.10 51.50 61.97 62.70 63.39 63.95 63.01 61.75 62.50 60.46 60.22 56.73 56.77 56.59 55.69
50.74 51.89 52.58 53.50 54.33 54.49 54.01 54.09 53.97 53.54 53.80 53.64 54.22 54.80 54.59 54.56 54.18 54.20 55.42 57.16 57.92 57.67 56.57 55.65 56.00 56.88 58.61 52.23 49.14 49.14 60.17 61.70 62.44 63.23 63.65 61.41 59.22 59.69 59.41 59.23 58.50 58.73 58.86
51.76 52.51 53.09 52.88 53.28 53.01 53.61 52.68 52.04 52.24 52.23 52.11 52.39 52.68 52.56 51.85 52.59 52.15 52.90 52.55 51.72 55.12 55.67 55.31 54.92 54.69 55.25 51.59 47.85 50.04 59.71 60.51 61.31 61.95 63.10 63.50 62.25 55.17 51.24 58.88 58.19 59.16 58.70
51.89 51.54 52.06 52.05 52.17 51.95 51.66 49.71 48.89 49.46 49.26 49.52 48.98 49.55 50.70 51.00 50.90 51.55 51.64 52.21 52.11 52.41 52.70 53.57 54.24 53.25 54.65 51.08 46.65 47.83 58.58 58.15 58.90 61.27 62.77 55.63 59.90 51.91 50.34 58.47 58.88 57.60 58.10
50.52 50.84 51.47 49.84 49.93 49.78 48.18 46.16 46.07 45.61 46.95 47.59 47.86 48.19 48.62 48.40 48.79 49.18 49.05 48.77 49.95 50.79 51.27 51.30 52.22 53.26 52.88 52.98 48.25 44.92 55.07 58.31 57.97 57.82 59.55 61.21 50.26 49.56 47.87 50.54 59.68 58.45 59.01
49.21 49.49 47.98 47.35 47.49 47.50 46.74 45.07 44.65 46.38 46.28 45.20 44.45 44.64 45.13 45.46 45.92 45.85 45.86 46.36 46.30 47.10 47.73 48.97 50.01 50.65 52.29 50.38 49.22 45.59 44.80 52.79 57.35 57.11 58.66 59.05 48.98 46.12 47.56 48.59 52.30 49.80 53.31
47.91 47.76 46.42 46.25 47.10 46.35 46.56 44.14 44.75 44.68 43.88 43.54 43.01 42.90 42.92 43.38 43.94 43.15 42.94 42.62 43.74 44.18 44.57 45.37 45.72 47.22 49.40 51.13 47.49 45.77 43.71 44.77 51.06 57.65 55.53 47.36 46.30 44.48 46.28 45.32 48.27 48.94 58.31
46.98 46.87 45.46 44.11 43.96 44.48 44.22 43.54 43.87 43.64 42.83 42.12 41.89 42.11 41.93 41.77 42.30 42.44 42.26 41.56 41.64 41.95 42.07 42.20 43.98 45.27 47.57 49.49 47.17 46.72 48.78 47.22 48.77 50.93 54.02 52.56 49.92 48.65 52.36 51.46 48.41 55.45 58.62
45.23 44.89 42.91 42.76 42.57 43.23 42.55 43.42 43.26 43.15 41.49 40.87 40.35 39.87 39.95 40.07 39.88 40.41 40.86 40.94 42.11 41.68 41.19 41.78 43.05 43.73 44.16 47.34 41.76 42.04 43.12 43.06 51.59 53.15 54.42 52.54 53.17 53.04 53.93 55.02 52.82 55.05 57.53
44.07 42.35 42.10 42.28 41.86 42.19 42.19 42.71 43.20 42.16 40.08 38.41 37.92 37.81 37.84 38.15 38.32 38.04 38.35 39.93 39.43 39.59 39.17 39.02 40.00 41.81 40.94 40.37 40.88 39.59 39.08 39.29 40.84 51.35 50.05 49.53 50.26 50.88 53.96 53.47 53.46 55.99 55.48
MSLP
1005.05 1006.15 1006.66 1006.71 1007.28 1007.32 1007.66 1008.35 1009.20 1009.66 1010.20 1010.71 1011.25 1011.60 1011.50 1011.54 1011.55 1011.62 1011.56 1011.76 1012.34 1012.82 1013.17 1013.68 1013.93 1013.65 1013.99 1014.25 1014.28 1014.44 1014.59 1014.72 1015.06 1015.51 1015.40 1015.83 1016.27 1016.71 1016.43 1014.84 1014.80 1014.94 1014.95
1005.52 1006.63 1007.26 1007.57 1007.86 1008.17 1008.51 1009.02 1009.33 1009.73 1010.06 1010.29 1010.58 1010.77 1010.99 1010.87 1010.88 1010.94 1011.07 1011.24 1011.70 1012.05 1012.45 1013.07 1013.32 1013.39 1013.63 1013.84 1013.93 1014.08 1014.40 1014.55 1014.61 1015.19 1015.44 1015.90 1016.55 1016.18 1015.10 1014.97 1015.06 1015.32 1015.31
1006.02 1007.19 1007.68 1008.16 1008.65 1008.98 1009.37 1009.75 1009.98 1010.34 1010.40 1010.30 1010.46 1010.44 1010.51 1010.49 1010.29 1010.19 1010.38 1010.56 1010.81 1011.30 1011.72 1012.17 1012.76 1012.93 1013.11 1013.23 1013.41 1013.66 1014.00 1014.38 1014.56 1014.65 1015.36 1015.84 1015.78 1015.40 1015.09 1015.24 1015.18 1015.35 1015.57
1006.36 1007.54 1008.25 1008.87 1009.33 1009.75 1010.27 1010.49 1010.60 1010.62 1010.58 1010.55 1010.50 1010.51 1010.35 1010.36 1010.13 1010.02 1009.79 1009.81 1010.00 1010.49 1010.94 1011.30 1011.76 1012.26 1012.43 1012.51 1012.76 1013.12 1013.54 1014.04 1014.38 1014.67 1014.74 1014.81 1015.09 1015.31 1015.56 1015.52 1015.30 1015.33 1015.48
1006.64 1007.70 1008.60 1009.08 1009.42 1009.92 1010.58 1010.90 1011.00 1010.77 1010.72 1010.62 1010.85 1010.84 1010.40 1010.38 1009.95 1009.75 1009.49 1009.37 1009.56 1009.65 1009.82 1010.18 1010.94 1011.49 1011.82 1011.79 1011.86 1012.35 1012.97 1013.51 1013.86 1014.16 1014.52 1014.43 1014.62 1014.76 1015.08 1015.46 1015.58 1015.33 1015.25
1006.79 1007.65 1008.53 1009.22 1009.52 1009.81 1010.62 1011.05 1011.24 1011.21 1011.06 1010.93 1010.74 1010.70 1010.73 1010.63 1010.46 1010.24 1009.99 1009.27 1008.89 1009.05 1008.81 1009.38 1010.52 1010.86 1011.16 1011.56 1011.79 1011.80 1012.04 1012.61 1013.14 1013.43 1013.81 1013.81 1013.98 1014.11 1014.36 1014.75 1014.88 1014.92 1015.04
1007.05 1007.87 1008.52 1009.10 1009.60 1010.20 1010.60 1011.03 1011.52 1011.69 1011.56 1011.40 1011.27 1011.22 1011.15 1010.86 1010.69 1010.51 1010.25 1009.83 1009.09 1008.31 1007.60 1006.26 1008.01 1010.53 1011.08 1010.93 1011.27 1011.37 1011.89 1011.98 1012.27 1012.60 1012.81 1012.63 1012.72 1012.85 1013.27 1013.96 1014.23 1014.65 1015.01
1007.39 1008.27 1008.98 1009.42 1009.76 1010.31 1010.88 1011.30 1011.58 1011.81 1011.95 1011.93 1011.86 1011.82 1011.71 1011.49 1011.18 1011.12 1010.97 1010.28 1009.46 1008.67 1008.76 1006.89 1005.83 1010.62 1012.65 1011.89 1011.50 1010.98 1011.64 1011.76 1011.56 1011.67 1011.68 1011.97 1012.08 1011.92 1012.38 1013.13 1013.93 1014.45 1014.82
1008.42 1009.18 1009.79 1010.25 1010.55 1010.55 1011.07 1011.47 1011.67 1011.79 1011.96 1012.04 1012.16 1012.30 1012.23 1012.07 1011.94 1011.84 1011.36 1010.79 1010.20 1009.80 1010.38 1011.80 1012.62 1011.75 1013.05 1012.15 1010.75 1010.27 1011.36 1011.21 1010.73 1010.62 1010.86 1011.44 1011.71 1011.58 1011.90 1012.51 1013.19 1014.02 1014.97
1008.81 1009.59 1010.52 1011.28 1011.13 1011.05 1011.30 1011.71 1011.94 1012.02 1012.15 1012.37 1012.36 1012.28 1012.36 1012.29 1012.12 1011.86 1011.46 1011.31 1010.90 1010.32 1010.40 1010.39 1009.83 1009.19 1012.38 1012.40 1009.28 1009.99 1010.54 1010.97 1010.81 1010.52 1010.63 1010.96 1011.26 1011.45 1011.64 1012.32 1012.89 1013.56 1014.29
1008.91 1009.74 1010.76 1011.77 1011.92 1011.89 1011.84 1012.12 1012.33 1012.26 1012.41 1012.76 1012.85 1012.72 1012.73 1012.54 1012.33 1012.08 1011.66 1011.35 1011.08 1010.81 1010.29 1010.64 1010.03 1010.54 1010.40 1011.25 1010.14 1009.49 1009.59 1010.21 1010.48 1010.42 1010.33 1010.80 1010.91 1011.36 1011.56 1012.17 1012.73 1013.43 1013.95
1010.02 1010.27 1011.19 1012.03 1012.26 1012.48 1012.51 1012.64 1012.75 1012.61 1012.67 1012.86 1012.96 1012.90 1012.92 1012.91 1012.67 1012.36 1012.07 1011.50 1011.22 1011.08 1010.70 1009.96 1009.49 1009.86 1010.08 1010.35 1010.79 1009.98 1009.00 1009.46 1009.99 1010.46 1010.74 1010.68 1011.08 1011.27 1011.50 1012.08 1012.61 1013.11 1013.53
1011.81 1011.52 1011.56 1012.14 1012.14 1012.65 1012.67 1012.85 1012.93 1012.88 1012.88 1013.01 1013.03 1013.01 1013.03 1012.93 1012.88 1012.66 1012.14 1011.55 1010.99 1010.92 1010.90 1010.69 1010.29 1010.13 1009.95 1009.95 1009.17 1008.11 1009.92 1010.20 1009.55 1009.90 1010.12 1009.86 1010.23 1011.01 1011.74 1012.01 1012.74 1013.26 1013.55
1011.69 1011.48 1011.66 1011.76 1012.48 1012.96 1012.86 1013.07 1013.18 1013.14 1013.11 1013.19 1013.18 1013.20 1013.13 1013.00 1012.78 1012.59 1012.21 1011.79 1011.08 1010.46 1010.51 1010.55 1010.49 1010.12 1009.98 1010.23 1010.31 1009.45 1010.48 1011.49 1009.78 1008.47 1009.35 1009.40 1009.39 1010.19 1011.69 1012.69 1013.28 1013.95 1014.71
1011.42 1011.31 1011.69 1012.23 1012.60 1012.98 1013.41 1013.44 1013.34 1013.37 1013.32 1013.29 1013.26 1013.24 1013.13 1012.87 1012.73 1012.48 1012.15 1011.82 1011.44 1010.82 1010.04 1009.80 1010.33 1010.61 1010.47 1010.30 1010.54 1010.94 1010.89 1011.27 1011.66 1007.48 1008.81 1008.53 1008.85 1009.23 1010.60 1011.72 1012.60 1012.78 1014.26
1011.60 1011.72 1012.23 1012.91 1013.20 1013.76 1013.79 1013.72 1013.52 1013.25 1013.27 1013.37 1013.41 1013.17 1012.84 1012.58 1012.44 1012.31 1012.16 1011.87 1011.50 1010.99 1010.49 1009.67 1009.26 1010.33 1010.67 1010.84 1010.82 1010.81 1011.06 1011.17 1010.28 1010.46 1010.51 1011.99 1010.61 1009.69 1010.56 1011.21 1011.54 1012.54 1013.70
1011.83 1012.20 1012.93 1013.28 1013.56 1013.41 1013.61 1013.60 1013.46 1013.20 1013.33 1013.18 1013.22 1013.04 1012.70 1012.39 1012.05 1011.79 1011.67 1011.54 1011.43 1011.25 1010.99 1010.41 1009.67 1008.72 1009.74 1010.43 1010.84 1010.62 1010.55 1010.53 1010.41 1009.94 1009.87 1010.60 1009.39 1010.05 1010.84 1011.46 1012.66 1012.70 1013.06
1013.06 1013.17 1013.25 1013.42 1013.40 1013.62 1013.79 1013.81 1013.55 1013.46 1013.52 1013.36 1013.19 1012.97 1012.57 1012.33 1012.43 1012.33 1011.84 1011.33 1010.89 1010.80 1010.78 1010.60 1010.31 1009.71 1008.66 1008.78 1009.61 1010.27 1009.93 1009.77 1009.58 1009.40 1009.45 1009.44 1009.85 1010.37 1011.02 1011.44 1011.77 1012.62 1012.81
1013.68 1013.65 1013.52 1013.56 1013.66 1013.80 1014.26 1014.35 1014.24 1014.42 1014.24 1013.86 1013.66 1013.50 1013.02 1012.93 1012.73 1012.64 1012.34 1012.14 1011.85 1011.05 1010.56 1010.31 1010.04 1009.81 1009.26 1008.77 1008.41 1009.15 1009.48 1009.40 1009.01 1008.67 1008.89 1009.40 1009.88 1010.41 1010.77 1011.30 1011.54 1012.00 1012.08
1013.84 1013.99 1014.32 1014.38 1014.54 1014.62 1015.02 1015.29 1015.27 1015.13 1014.92 1014.62 1014.92 1014.69 1014.04 1013.48 1013.25 1012.93 1012.58 1012.23 1011.90 1011.35 1010.81 1010.14 1009.75 1009.53 1009.27 1009.09 1008.52 1008.38 1008.33 1008.44 1008.68 1008.53 1008.31 1008.35 1008.74 1009.45 1010.18 1010.69 1010.78 1011.08 1011.28
1014.46 1014.74 1014.78 1014.96 1015.26 1015.45 1016.16 1016.08 1016.11 1016.04 1015.92 1015.69 1015.34 1014.87 1014.43 1014.10 1013.73 1013.25 1013.00 1012.77 1012.14 1011.42 1010.80 1010.31 1009.93 1009.52 1009.26 1009.10 1008.86 1008.43 1008.13 1007.42 1007.65 1007.99 1008.24 1008.46 1008.70 1008.94 1009.60 1009.99 1010.12 1010.30 1010.57
1014.74 1014.96 1015.28 1015.65 1016.07 1016.31 1016.41 1016.40 1016.36 1016.29 1016.12 1015.94 1015.62 1015.36 1014.95 1014.52 1013.97 1013.61 1013.21 1012.82 1012.30 1011.63 1010.87 1010.27 1009.55 1009.16 1008.75 1008.69 1008.30 1007.92 1007.87 1007.27 1007.06 1007.10 1007.55 1007.79 1008.04 1008.39 1008.81 1009.26 1009.42 1009.56 1010.23
1014.96 1015.47 1015.83 1015.99 1016.22 1016.58 1016.55 1016.46 1016.40 1016.34 1016.13 1015.84 1015.47 1015.10 1014.72 1014.30 1013.84 1013.34 1012.88 1012.47 1012.04 1011.41 1010.81 1010.11 1009.59 1008.88 1008.57 1008.24 1008.20 1007.37 1006.98 1006.82 1007.20 1006.70 1006.83 1007.35 1007.68 1007.86 1008.38 1008.56 1008.76 1009.17 1009.52
1015.22 1015.61 1016.02 1016.34 1016.50 1016.71 1016.75 1016.67 1016.38 1016.17 1015.84 1015.47 1015.10 1014.70 1014.25 1013.75 1013.34 1012.88 1012.44 1011.96 1011.48 1010.98 1010.57 1010.23 1009.54 1009.04 1008.58 1008.26 1008.63 1008.39 1007.91 1007.48 1007.30 1006.88 1006.86 1007.06 1007.47 1007.84 1007.96 1008.28 1008.83 1008.89 1008.81
1016.10 1016.41 1016.84 1016.85 1016.82 1016.80 1016.75 1016.54 1016.21 1015.90 1015.58 1015.28 1014.89 1014.43 1013.95 1013.45 1012.92 1012.44 1011.92 1011.42 1010.92 1010.63 1010.32 1009.96 1009.63 1009.04 1008.57 1008.21 1008.79 1008.90 1008.59 1008.40 1007.18 1006.87 1007.09 1007.20 1007.33 1007.62 1007.74 1007.85 1008.12 1008.21 1008.12
1016.70 1017.08 1017.20 1017.24 1017.07 1016.82 1016.69 1016.34 1016.06 1015.96 1015.65 1015.10 1014.63 1014.23 1013.75 1013.18 1012.66 1011.99 1011.17 1010.81 1010.27 1009.86 1009.57 1009.36 1009.31 1008.91 1008.72 1008.47 1008.57 1008.64 1008.59 1008.38 1007.67 1006.86 1006.97 1007.11 1007.07 1007.26 1007.16 1007.65 1007.55 1007.50 1007.37
Wind_Speed
13 12 9 9 8 6 1 8 9 7 5 7 8 8 8 7 6 6 7 9 10 11 8 7 7 5 5 6 6 4 4 3 2 4 3 3 5 5 8 3 0 4 2
11 10 8 8 7 6 4 5 3 5 7 6 5 7 9 8 8 7 8 9 11 10 10 9 7 8 6 7 6 5 3 3 4 3 2 3 2 9 6 3 1 2 4
12 8 8 8 8 7 6 4 4 5 6 7 5 5 5 4 4 7 7 8 10 11 9 10 9 6 8 6 7 5 5 4 4 4 4 2 3 2 3 5 3 5 3
14 11 9 9 9 11 9 7 4 4 4 4 6 8 6 7 6 5 6 9 13 12 12 10 11 10 8 7 5 6 5 5 5 1 3 6 3 2 2 2 3 5 3
15 14 12 8 11 12 10 10 9 8 4 3 3 5 7 7 4 5 7 7 12 14 15 15 13 11 8 8 8 8 7 5 5 4 2 2 4 4 3 2 2 2 4
14 15 14 10 9 11 12 9 10 10 10 11 8 4 6 7 7 8 9 6 9 11 17 16 13 12 10 8 6 6 10 8 6 5 5 4 4 4 3 3 3 5 3
15 13 14 13 11 10 9 10 9 9 9 11 11 12 11 8 7 7 8 11 10 11 16 22 18 10 10 10 7 8 7 9 8 6 6 4 4 4 4 2 2 2 2
13 12 9 9 11 11 10 10 8 9 9 9 9 10 11 8 8 9 9 10 11 11 8 23 17 20 10 6 6 6 7 9 9 9 6 3 2 3 3 4 2 2 1
10 11 9 8 8 9 10 9 8 7 8 7 7 8 8 8 8 11 10 9 12 11 1 9 8 18 25 14 8 8 11 11 11 10 7 5 4 3 4 3 3 3 1
11 7 12 6 8 7 10 9 8 7 8 9 8 6 5 7 7 8 10 10 10 13 13 9 12 17 21 25 12 11 12 11 9 8 8 6 4 4 5 4 3 3 2
6 9 8 7 7 8 9 8 7 7 7 7 7 8 9 10 10 9 10 10 12 8 12 10 9 12 20 23 12 13 12 15 11 11 11 9 7 3 5 4 3 3 3
6 9 7 4 6 6 7 7 6 7 8 6 5 6 6 9 7 8 9 12 14 12 9 10 9 6 8 12 13 22 13 15 13 11 8 12 8 6 6 5 6 5 5
1 2 4 6 6 6 6 7 7 7 7 7 7 6 6 6 7 9 10 9 11 12 12 9 8 9 9 5 6 23 12 8 12 13 13 13 13 8 3 4 4 3 3
0 3 5 7 7 6 8 8 9 9 8 9 8 7 6 7 7 8 8 10 11 13 12 10 11 10 8 7 5 2 11 21 20 19 16 11 13 11 10 9 8 7 8
6 6 7 7 8 9 8 9 9 9 9 8 8 7 7 7 9 9 8 9 9 12 13 12 9 9 9 4 5 1 4 6 21 20 9 4 11 20 14 9 7 9 5
9 8 9 11 11 10 9 10 9 9 9 9 10 10 10 9 7 7 9 9 10 9 10 13 13 8 7 8 6 2 3 7 5 11 13 7 12 14 11 10 15 11 5
7 7 6 8 8 10 10 9 10 11 11 10 11 12 12 11 9 9 8 8 7 8 11 12 13 16 8 4 2 3 3 3 5 6 12 12 5 7 12 13 8 12 12
13 12 11 11 10 11 12 12 12 12 13 13 13 13 13 11 12 14 12 9 7 6 6 9 12 16 15 11 6 6 6 4 5 5 8 8 10 11 13 17 15 15 12
9 11 11 12 11 11 12 14 13 14 14 14 14 15 14 14 12 14 13 10 12 11 8 8 10 14 15 20 11 6 5 7 8 7 6 12 13 15 16 14 16 17 13
10 12 13 14 13 13 13 13 14 14 14 15 15 15 16 15 15 14 13 12 12 12 11 12 10 11 14 15 12 10 6 7 6 7 6 9 11 17 23 18 17 17 18
14 14 12 11 13 13 13 13 13 14 14 15 16 15 14 15 15 13 12 13 14 14 13 12 11 12 13 16 15 12 11 7 6 6 6 6 13 15 20 22 16 18 14
12 11 11 11 11 11 8 9 10 11 12 13 15 14 13 12 11 14 13 14 14 15 14 14 12 10 12 15 16 15 17 12 8 8 6 5 9 11 15 17 21 12 13
10 10 10 12 10 11 11 13 13 12 12 13 14 13 15 13 13 13 13 11 12 11 12 11 12 10 10 10 14 19 17 18 6 6 5 6 8 7 8 14 13 13 11
10 10 12 13 12 9 9 10 11 12 12 14 13 13 12 13 13 11 10 10 10 10 10 10 10 10 9 11 3 7 9 9 7 5 3 5 6 6 6 4 10 11 10
12 12 11 10 10 11 11 11 11 11 12 12 13 13 11 12 12 11 10 10 11 10 10 10 9 9 10 7 5 5 6 10 9 5 3 2 4 6 4 4 7 10 11
11 10 10 10 11 10 11 11 11 11 12 13 11 11 11 11 11 11 12 14 17 18 16 18 16 12 16 19 15 5 10 11 14 4 3 3 2 2 4 5 3 6 9
Wind_Direction
95 79 55 34 46 25 58 155 177 184 195 182 184 207 228 210 223 208 236 165 185 195 198 205 239 194 195 217 228 221 209 237 240 285 294 173 174 245 230 289 347 342 323
92 78 69 73 55 52 34 0 296 207 202 215 212 202 206 224 210 206 213 199 184 191 197 202 231 195 205 223 234 215 253 247 195 226 241 288 196 211 239 266 185 33 7
109 96 84 89 91 74 62 45 349 320 316 230 234 230 248 260 229 208 198 192 186 191 198 193 213 221 201 213 202 201 193 235 263 161 144 268 231 234 186 212 209 150 208
124 122 116 110 94 92 71 77 59 0 305 274 274 258 240 230 253 247 213 190 187 190 199 208 198 222 207 212 188 178 189 193 239 58 223 236 145 356 124 214 191 165 176
146 138 128 103 108 100 77 69 43 36 58 323 249 309 267 272 279 257 237 213 189 195 198 199 208 207 218 194 192 181 181 191 207 188 211 225 223 203 158 231 150 235 204
142 134 131 116 88 88 99 68 59 35 32 33 23 339 329 320 305 310 319 280 193 201 205 197 196 208 203 210 203 187 180 191 199 180 219 209 172 206 175 205 206 191 159
144 148 140 120 107 87 72 87 60 49 38 30 30 19 16 349 314 297 292 292 289 221 213 196 183 197 204 200 200 183 183 189 202 194 225 224 185 195 152 154 303 137 163
133 118 95 100 97 93 74 64 70 67 38 38 27 22 19 7 351 357 334 309 295 309 23 21 6 359 284 254 214 186 195 201 198 206 192 223 297 172 134 152 170 341 226
102 117 85 69 76 89 82 66 48 39 56 45 29 30 17 15 5 347 341 342 335 336 142 153 149 178 281 243 215 200 202 205 197 197 176 176 227 189 144 138 117 127 324
132 93 98 43 59 42 80 65 35 23 50 27 14 20 7 357 354 349 342 341 337 335 344 315 195 197 229 250 209 209 203 211 198 191 185 179 201 216 136 139 138 136 150
69 111 91 92 47 30 42 55 32 9 49 34 6 355 1 353 357 347 338 336 332 350 337 348 328 226 226 236 237 212 213 205 199 201 182 185 193 189 145 146 157 157 141
51 59 84 71 64 40 33 35 20 359 24 24 2 351 6 346 339 329 338 335 332 335 346 355 337 332 224 216 236 243 215 200 207 194 197 186 193 196 171 161 176 166 170
326 78 22 34 29 21 10 11 358 357 352 353 348 345 347 341 329 322 321 317 319 327 332 342 345 345 337 345 258 235 300 264 204 207 201 190 179 183 168 95 103 81 102
225 53 36 17 11 358 8 353 344 345 351 341 326 325 332 323 305 303 308 316 318 317 321 329 334 331 345 13 356 339 240 274 294 205 209 200 181 162 123 107 97 73 36
326 13 8 358 349 354 353 335 343 337 325 316 314 310 307 299 310 310 302 304 305 307 310 315 322 330 335 56 65 339 309 252 286 289 232 174 149 139 142 140 144 103 98
332 337 0 355 348 335 331 323 312 309 325 321 308 301 292 282 282 290 300 302 299 295 302 309 311 315 316 125 182 214 225 229 260 195 212 225 164 138 141 115 114 114 120
319 346 334 325 322 320 311 319 328 327 318 310 304 301 297 295 283 271 273 276 294 316 317 311 306 305 291 115 147 285 229 241 273 247 216 174 195 172 138 106 127 189 195
346 337 332 325 333 341 332 324 327 324 321 321 315 305 299 329 352 344 325 294 261 266 289 304 309 313 309 306 203 183 286 282 266 275 173 184 167 180 184 176 190 209 212
325 315 327 323 323 331 357 355 345 332 323 314 319 322 330 329 330 327 323 321 333 312 279 279 290 298 301 313 274 205 223 265 272 264 241 187 190 197 203 195 196 209 217
332 343 1 352 345 349 356 346 332 328 320 328 332 332 330 328 325 319 308 307 302 294 299 292 278 279 297 303 293 253 242 248 260 270 253 232 222 192 197 201 202 206 212
355 337 333 335 345 348 343 330 325 319 325 325 325 320 319 319 314 306 307 314 311 303 286 283 293 292 287 288 291 250 272 265 259 259 255 242 228 218 197 206 207 213 222
318 337 341 336 334 319 321 319 308 308 315 313 306 305 305 305 304 299 298 299 296 293 286 289 277 269 270 272 277 246 224 260 258 259 269 264 279 233 224 200 220 215 188
341 344 329 324 344 346 333 327 320 320 313 304 300 298 296 294 293 291 292 289 286 279 284 277 278 286 293 289 315 283 228 226 233 240 254 304 260 244 216 213 208 182 205
348 347 336 329 326 324 337 316 317 316 311 306 305 302 299 297 292 284 279 278 277 272 266 273 280 270 271 272 36 354 346 262 243 233 212 216 208 215 237 191 215 217 212
346 352 337 323 329 335 325 319 314 314 311 309 307 303 297 297 297 288 281 276 274 268 272 272 282 277 263 273 38 47 4 349 277 174 180 170 187 189 188 201 203 215 203
346 337 329 327 319 326 319 317 328 332 320 310 308 304 301 296 293 291 287 269 259 263 254 256 253 267 262 278 294 316 332 350 337 200 184 216 191 260 208 209 197 197 194